Printer-friendly version

IAU Minor Planet Center

Minor Planet Center

MPEC 2000-S42: 2000 SF8

The following Minor Planet Electronic Circular may be linked-to from your own Web pages, but must not otherwise be redistributed electronically.


Read MPEC 2000-S41 Read MPEC 2000-S43


M.P.E.C. 2000-S42                                Issued 2000 Sept. 24, 21:35 UT

     The Minor Planet Electronic Circulars contain information on unusual
         minor planets and routine data on comets.  They are published
   on behalf of Commission 20 of the International Astronomical Union by the
          Minor Planet Center, Smithsonian Astrophysical Observatory,
                          Cambridge, MA 02138, U.S.A.

             Prepared using the Tamkin Foundation Computer Network

                              MPC@CFA.HARVARD.EDU
          URL http://cfa-www.harvard.edu/iau/mpc.html  ISSN 1523-6714

                                   2000 SF8

Observations:
     K00S08F* C2000 09 21.18539 21 12 12.19 -08 02 01.1          17.1        704
     K00S08F  C2000 09 21.20004 21 12 13.46 -07 59 42.5          17.5        704
     K00S08F  C2000 09 21.21671 21 12 14.87 -07 57 03.8          17.7        704
     K00S08F  C2000 09 21.24643 21 12 17.51 -07 52 22.4          17.9        704
     K00S08F  C2000 09 22.13591 21 13 56.98 -05 35 03.6          17.5        704
     K00S08F  C2000 09 22.15079 21 13 58.24 -05 32 48.9          17.8        704
     K00S08F  C2000 09 22.16534 21 13 59.48 -05 30 37.4          17.8        704
     K00S08F  C2000 09 22.17993 21 14 00.75 -05 28 25.1          18.4        704
     K00S08F  C2000 09 22.19454 21 14 01.97 -05 26 13.0          17.8        704
     K00S08F  C2000 09 22.90995 21 15 18.32 -03 40 26.3                      108
     K00S08F  C2000 09 22.91273 21 15 18.67 -03 40 02.4                      108
     K00S08F  C2000 09 22.91505 21 15 18.83 -03 39 39.5          17.4 V      108
     K00S08F tC2000 09 22.99479 21 15 30.61 -03 26 43.6                      808
     K00S08F tC2000 09 23.00174 21 15 30.97 -03 25 50.1                      808
     K00S08F tC2000 09 23.00781 21 15 31.47 -03 25 00.9                      808
     K00S08F tC2000 09 23.01476 21 15 32.31 -03 24 01.5                      808
     K00S08F  C2000 09 23.10090 21 15 41.68 -03 12 42.9          17.7        704
     K00S08F  C2000 09 23.10092 21 15 41.68 -03 12 42.7          17.6        704
     K00S08F  C2000 09 23.10142 21 15 42.00 -03 12 37.4          18.4        853
     K00S08F  C2000 09 23.10218 21 15 42.07 -03 12 30.9          18.7        853
     K00S08F  C2000 09 23.10267 21 15 42.11 -03 12 26.6          18.7        853
     K00S08F  C2000 09 23.13042 21 15 44.21 -03 08 29.1          18.4        704
     K00S08F  C2000 09 23.13044 21 15 44.20 -03 08 29.6          18.4        704
     K00S08F  C2000 09 23.14524 21 15 45.56 -03 06 21.3          19.7        704
     K00S08F  C2000 09 23.14571 21 15 45.43 -03 06 15.6          18.1        704
     K00S08F  C2000 09 23.15997 21 15 46.72 -03 04 13.3          17.6        704
     K00S08F  C2000 09 23.16061 21 15 46.77 -03 04 08.1          16.9        704
     K00S08F  C2000 09 23.17746 21 15 48.21 -03 01 43.6          17.9        704
     K00S08F  C2000 09 23.19207 21 15 49.48 -02 59 38.3          18.3        704
     K00S08F  C2000 09 23.20667 21 15 50.70 -02 57 32.3          18.2        704
     K00S08F  C2000 09 23.22128 21 15 51.98 -02 55 27.9          18.3        704
     K00S08F  C2000 09 23.23590 21 15 53.21 -02 53 22.0          17.8        704
     K00S08F  C2000 09 23.79381 21 16 54.88 -01 35 01.6          17.4 R      046
     K00S08F  C2000 09 23.79483 21 16 54.94 -01 34 53.0                      046
     K00S08F  C2000 09 23.79539 21 16 55.04 -01 34 49.3                      046
     K00S08F  C2000 09 23.79611 21 16 55.10 -01 34 42.5                      046
     K00S08F  C2000 09 23.79690 21 16 55.15 -01 34 36.2                      046
     K00S08F  C2000 09 23.79780 21 16 55.24 -01 34 29.5          17.3 R      046
     K00S08F  C2000 09 23.82860 21 16 58.21 -01 30 11.5          18.1 V      151
     K00S08F  C2000 09 23.83012 21 16 58.41 -01 29 58.5          18.2 V      151
     K00S08F  C2000 09 23.83109 21 16 58.47 -01 29 51.6          18.4 V      151
     K00S08F  C2000 09 23.83290 21 16 58.60 -01 29 35.8          18.4 V      151
     K00S08F  C2000 09 23.83390 21 16 58.73 -01 29 27.4          18.0 V      151
     K00S08F  C2000 09 23.83496 21 16 58.79 -01 29 19.1          18.4 V      151
     K00S08F  C2000 09 23.83583 21 16 58.66 -01 29 12.9                      108
     K00S08F  C2000 09 23.84026 21 16 59.22 -01 28 34.5          18.1 V      108
     K00S08F  C2000 09 23.85994 21 17 01.13 -01 25 54.0          18.3        163
     K00S08F  C2000 09 23.86031 21 17 01.17 -01 25 50.7                      163
     K00S08F  C2000 09 23.86069 21 17 01.20 -01 25 48.0                      163
     K00S08F  C2000 09 23.86106 21 17 01.25 -01 25 44.9                      163
     K00S08F tC2000 09 24.05712 21 17 22.36 -00 57 26.9                      808
     K00S08F tC2000 09 24.06059 21 17 22.70 -00 56 58.0                      808
     K00S08F tC2000 09 24.06684 21 17 23.16 -00 56 06.3                      808
     K00S08F  C2000 09 24.75396 21 18 37.19 +00 34 38.5                      557
     K00S08F  C2000 09 24.75473 21 18 37.27 +00 34 45.1                      557
     K00S08F  C2000 09 24.75550 21 18 37.33 +00 34 51.0          18.0 V      557
     K00S08F  C2000 09 24.83020 21 18 44.34 +00 44 37.6          18.3 V      611
     K00S08F  C2000 09 24.83119 21 18 44.45 +00 44 46.9                      611
     K00S08F  C2000 09 24.83214 21 18 44.46 +00 44 54.6                      611
     K00S08F  C2000 09 24.83351 21 18 44.64 +00 45 04.3                      611
     K00S08F  C2000 09 24.83442 21 18 44.73 +00 45 11.9                      611

Observer details:
046 Klet.  Observers J. Ticha, M. Tichy.  0.57-m f/5.2
    reflector + CCD.
108 Montelupo.  Observers M. Tombelli, A. Boattini, L. Tesi, D. Guidetti,
    G. Forti, E. Masotti.  Measurers M. Tombelli, A. Boattini, L. Tesi,
    S. Bartolini, G. Forti.  0.30-m f/5.7 Schmidt-Cassegrain + CCD.
151 Eschenberg Observatory, Winterthur.  Observer M. Griesser.  0.40-m f/5.8
    Hypergraph.
163 Roeser Observatory, Luxembourg.  Observer M. Dawson.  0.457-m f/4.5
    reflector + CCD.
557 Ondrejov.  Observer L. Sarounova.  0.65-m f/3.6 reflector + CCD.
611 Starkenburg.  Observers M. Busch, R. Kresken.  0.45-m f/4.4 reflector + CCD.
704 Lincoln Laboratory ETS, New Mexico.  Observers M. Blythe, F. Shelly,
    M. Bezpalko, M. Elowitz, R. Huber, L. Manguso.  Measurers J. Stuart,
    R. Sayer, J. B. Evans, H. Viggh.  1.0-m f/2.15 reflector + CCD.
808 El Leoncito.  Observers C. E. Lopez, H. S. Lepez.   0.5-m f/7.5 double
    astrograph + CCD.
853 Biosphere 2 Observatory.  Observer G. J. Garradd.  0.5-m f/8.1 reflector
    + CCD.

Orbital elements:
2000 SF8
Epoch 2000 Sept. 13.0 TT = JDT 2451800.5                Spahr
M   6.98264              (2000.0)            P               Q
n   0.46211005     Peri.  339.59856     +0.87657897     +0.47912171
a   1.6569362      Node   351.34551     -0.38918210     +0.65035615
e   0.3479252      Incl.   17.51867     -0.28310175     +0.58947372
P   2.13           H   20.6           G   0.15
From 61 observations 2000 Sept. 21-24.

Ephemeris:
2000 SF8                 a,e,i = 1.66, 0.35, 18                  q = 1.0804
Date    TT    R. A. (2000) Decl.     Delta      r     Elong.  Phase     V
2000 09 23    21 15.49   -03 26.7    0.134    1.108   138.5    36.9    18.0
2000 10 03    21 32.92   +14 48.8    0.181    1.132   133.4    39.9    18.7
2000 10 13    21 50.62   +24 35.6    0.241    1.164   128.8    41.9    19.5
2000 10 23    22 09.35   +29 55.3    0.308    1.200   125.5    42.4    20.1
2000 11 02    22 29.61   +32 55.5    0.382    1.242   122.9    42.1    20.6
2000 11 12    22 51.44   +34 40.6    0.460    1.286   120.6    41.5    21.1
2000 11 22    23 14.61   +35 43.2    0.543    1.333   118.2    40.8    21.5
2000 12 02    23 38.93   +36 21.5    0.632    1.382   115.5    40.1    21.9

Timothy B. Spahr             (C) Copyright 2000 MPC           M.P.E.C. 2000-S42

Read MPEC 2000-S41 Read MPEC 2000-S43


Our Web policy. Index to the CBAT/MPC/ICQ pages.


Valid HTML 4.01!